www.pogodaiklimat.ru

Погода и климат >> Архив погоды >> Швейцария >> Стабио


ПОГОДА в Стабио

  • Прогноз погоды в Стабио
  • Монитор погоды в Стабио

АРХИВ ПОГОДЫ в Стабио

Время (UTC), дата Ветер
(напр.,м/с)
 
Видим.   Явления Облачность Т
(С)
Тd
(С)
f
(%)
Тe
(С)
Тes
(С)
Комфортность P
(гПа)
Po
(гПа)
Тmin
(С)
Tmax
(С)
R
(мм)
R24
(мм)
S
(см)
22 11.07 ЮЗ 1
{2}
н/о н/о +16.8 +14.5 86 +18 +18 1013.6 972.7
23 11.07 ЮЗ 1
{1}
н/о н/о +16.1 +14.0 87 +17 +17 1013.8 972.8
00 12.07 Ю 1
{2}
н/о н/о +15.6 +14.1 91 +17 +17 1013.9 972.8
01 12.07 ЮЗ 1
{1}
н/о н/о +14.9 +13.8 93 +16 +16 1014.0 972.8
02 12.07 ЮЗ 1
{1}
н/о н/о +14.6 +13.5 93 +16 +16 1013.9 972.6
03 12.07 Ю 1
{2}
н/о н/о +14.5 +13.5 94 +16 +16 1014.0 972.7
04 12.07 ЮЗ 1
{2}
н/о н/о +14.6 +13.8 95 +15 +15 1014.2 972.9
05 12.07 ЮЗ 1
{1}
н/о н/о +14.8 +13.8 94 +16 +16 1014.6 973.3
06 12.07 ЮЗ 1
{2}
н/о н/о +17.8 +15.6 87 +19 +19 1014.3 973.5 +14.2
07 12.07 СЗ 1
{2}
н/о н/о +20.6 +15.7 73 +25 +25 комфорт 1013.7 973.3
08 12.07 В 2
{3}
н/о н/о +21.9 +14.3 62 +25 +25 комфорт 1013.2 973.0
09 12.07 Ю 1
{4}
н/о н/о +23.4 +15.0 59 +27 +27 душно 1012.8 972.8
10 12.07 ЮЗ 2
{4}
н/о н/о +24.0 +14.7 56 +27 +27 жарко 1012.0 972.2
11 12.07 ЮЗ 3
{7}
н/о н/о +27.5 +15.5 48 +30 +30 жарко 1011.0 971.7
12 12.07 ЮЗ 3
{7}
н/о н/о +27.6 +13.8 43 +30 +30 жарко 1010.6 971.3
13 12.07 ЮЗ 3
{6}
н/о н/о +28.4 +13.7 40 +30 +30 жарко 1010.0 970.8
14 12.07 З 3
{7}
н/о н/о +28.8 +13.9 40 +31 +31 жарко 1009.3 970.2
15 12.07 З 3
{7}
н/о н/о +28.7 +13.2 39 +30 +30 жарко 1008.8 969.7
16 12.07 З 3
{7}
н/о н/о +29.0 +12.3 36 +30 +30 жарко 1008.2 969.2
17 12.07 З 2
{5}
н/о н/о +28.1 +10.1 32 +28 +28 жарко 1008.1 969.0
18 12.07 ЮЗ 2
{7}
н/о н/о +26.9 +13.9 45 +29 +29 жарко 1008.4 969.1 +29.5
19 12.07 ЮЗ 1
{3}
н/о н/о +22.7 +15.6 64 +27 +27 душно 1009.2 969.3
20 12.07 ЮЗ 1
{1}
н/о н/о +20.8 +15.3 71 +25 +25 комфорт 1009.9 969.7
21 12.07 штиль 0
{3}
н/о н/о +19.8 +15.2 75 +22 +22 комфорт 1010.4 970.0
22 12.07 Ю 1
{2}
н/о н/о +19.4 +14.9 75 +22 +22 комфорт 1010.6 970.2
23 12.07 СВ 2
{5}
н/о н/о +22.2 +14.8 63 +26 +26 душно 1010.4 970.4
00 13.07 Ю 1
{5}
н/о н/о +19.2 +15.2 78 +22 +22 комфорт 1010.7 970.2
01 13.07 ЮЗ 1
{2}
н/о н/о +19.8 +15.7 77 +23 +23 комфорт 1010.4 970.0
02 13.07 ЮЗ 1
{1}
н/о н/о +18.1 +15.5 85 +19 +19 1010.1 969.5
03 13.07 Ю 1
{2}
н/о н/о +16.3 +14.8 91 +18 +18 1010.3 969.4
04 13.07 ЮЗ 1
{2}
н/о н/о +15.5 +14.2 92 +16 +16 1010.5 969.5
05 13.07 ЮЗ 1
{2}
н/о н/о +16.5 +14.9 90 +17 +17 1010.7 969.8
06 13.07 В 1
{2}
н/о н/о +20.2 +15.2 73 +24 +24 комфорт 1010.5 970.2 +14.9
07 13.07 ЮЗ 1
{2}
н/о н/о +22.4 +15.2 64 +26 +26 жарко 1010.5 970.5
08 13.07 ЮВ 1
{2}
н/о н/о +23.5 +15.1 59 +26 +26 жарко 1010.1 970.3
09 13.07 ЮВ 1
{3}
н/о н/о +26.8 +13.7 44 +29 +29 жарко 1009.4 970.0
10 13.07 СВ 2
{6}
н/о н/о +29.4 +5.1 21 +28 +28 жарко 1008.9 969.9
11 13.07 СВ 5
{8}
н/о н/о +29.1 +3.4 19 +27 +27 жарко 1008.9 969.9
12 13.07 СВ 4
{8}
н/о н/о +29.9 +3.9 19 +28 +28 жарко 1008.6 969.7
13 13.07 СВ 5
{9}
н/о н/о +29.8 +3.3 18 +28 +28 жарко 1008.3 969.4
14 13.07 СВ 4
{8}
н/о н/о +30.0 +3.7 19 +28 +28 жарко 1008.2 969.3
15 13.07 ЮВ 2
{9}
н/о н/о +28.8 +6.0 24 +28 +28 жарко 1008.4 969.4
16 13.07 В 3
{5}
н/о н/о +28.7 +4.5 21 +27 +27 жарко 1008.3 969.2
17 13.07 В 3
{8}
н/о н/о +27.8 +4.8 23 +27 +27 жарко 1008.6 969.4
18 13.07 В 3
{9}
н/о н/о +26.8 +4.4 24 +26 +26 жарко 1009.0 969.7 +30.2
19 13.07 ЮЗ 1
{3}
н/о н/о +21.6 +8.4 43 +23 +23 комфорт 1010.3 970.2
20 13.07 ЮЗ 1
{3}
н/о н/о +20.2 +6.6 41 +22 +22 комфорт 1011.4 971.0
21 13.07 ЮЗ 1
{3}
н/о н/о +17.1 +7.6 54 +18 +18 1012.5 971.7
22 13.07 З 1
{2}
н/о н/о +17.8 +7.4 51 +19 +19 1013.4 972.6
23 13.07 ЮВ 3
{8}
н/о н/о +21.0 +9.7 48 +23 +23 комфорт 1013.3 973.0
00 14.07 ЮЗ 2
{8}
н/о н/о +18.9 +10.5 58 +20 +20 1013.7 973.1
01 14.07 ЮЗ 1
{2}
н/о н/о +15.4 +10.4 72 +16 +16 1013.9 972.8
02 14.07 ЮЗ 1
{2}
н/о н/о +14.3 +10.3 77 +15 +15 1014.0 972.7
03 14.07 ЮЗ 1
{2}
н/о н/о +13.3 +10.5 83 +14 +14 1013.7 972.3
04 14.07 ЮЗ 1
{2}
н/о н/о +13.3 +10.4 83 +14 +14 1013.4 972.0
05 14.07 штиль 0
{2}
н/о н/о +15.8 +11.1 74 +16 +16 1012.7 971.7
06 14.07 СВ 1
{2}
н/о н/о +20.0 +11.4 58 +23 +23 комфорт 1011.9 971.5 +12.8
07 14.07 В 2
{3}
н/о н/о +22.2 +9.7 45 +24 +24 комфорт 1011.7 971.6
08 14.07 В 2
{5}
н/о н/о +23.5 +8.3 38 +24 +24 комфорт 1011.7 971.8
09 14.07 В 2
{5}
н/о н/о +24.2 +8.5 37 +25 +25 комфорт 1011.5 971.7
10 14.07 С 1
{4}
н/о н/о +26.4 +7.6 30 +26 +26 жарко 1010.9 971.4
11 14.07 ЮВ 2
{5}
н/о н/о +26.2 +7.8 31 +26 +26 жарко 1010.6 971.1
12 14.07 Ю 3
{5}
н/о н/о +26.9 +9.0 32 +27 +27 жарко 1010.1 970.7
13 14.07 ЮВ 2
{6}
н/о н/о +27.3 +8.8 31 +27 +27 жарко 1009.4 970.1
14 14.07 ЮВ 2
{7}
н/о н/о +27.7 +8.2 29 +27 +27 жарко 1008.8 969.6
15 14.07 ЮЗ 3
{7}
н/о н/о +27.3 +8.1 30 +27 +27 жарко 1008.6 969.3
16 14.07 Ю 1
{4}
н/о н/о +26.1 +9.2 34 +26 +26 жарко 1008.3 968.9
17 14.07 Ю 2
{4}
н/о н/о +25.7 +9.2 35 +26 +26 жарко 1008.3 968.8
18 14.07 ЮЗ 1
{7}
н/о н/о +24.6 +9.0 37 +25 +25 комфорт 1008.3 968.7 +28.2
19 14.07 ЮЗ 1
{2}
н/о н/о +21.7 +12.6 56 +24 +24 комфорт 1009.0 969.0
20 14.07 ЮЗ 1
{1}
н/о н/о +20.1 +12.6 62 +23 +23 комфорт 1009.5 969.2
21 14.07 ЮЗ 1
{2}
н/о н/о +19.7 +12.1 62 +23 +23 комфорт 1009.4 969.1
22 14.07 ЮЗ 1
{3}
н/о н/о +21.1 +12.5 58 +23 +23 комфорт 1009.8 969.6
23 14.07 СВ 2
{10}
н/о н/о +16.4 +14.2 87 +16 +16 1011.0 970.1 2
00 15.07 СВ 2
{10}
н/о н/о +16.1 +14.1 88 +16 +16 1011.5 970.6 0.6
01 15.07 ЮЗ 2
{5}
н/о н/о +15.8 +14.8 94 +16 +16 1012.2 971.2 4
02 15.07 В 2
{4}
н/о н/о +15.2 +13.8 91 +15 +15 1011.8 970.7 5
03 15.07 СВ 1
{5}
н/о н/о +15.2 +13.7 91 +16 +16 1011.7 970.6 5
04 15.07 В 1
{2}
н/о н/о +14.3 +13.6 96 +15 +15 1011.9 970.7 2
05 15.07 СВ 3
{5}
н/о н/о +14.9 +11.2 79 +14 +14 1011.7 970.6 0.9
06 15.07 В 2
{5}
н/о н/о +14.1 +12.0 87 +14 +14 1012.7 971.4 +14.1 1
07 15.07 Ю 1
{3}
н/о н/о +14.5 +12.4 87 +16 +16 1013.0 971.8 2
08 15.07 ЮЗ 1
{3}
н/о н/о +14.8 +12.7 87 +15 +15 1012.9 971.7 0.8
09 15.07 В 2
{4}
н/о н/о +16.4 +11.6 73 +17 +17 1012.8 971.8 0.4
10 15.07 Ю 1
{4}
н/о н/о +17.0 +13.2 78 +18 +18 1013.0 972.1 0.1
11 15.07 Ю 1
{2}
н/о н/о +18.0 +13.6 75 +20 +20 1012.7 972.0
12 15.07 Ю 1
{4}
н/о н/о +19.2 +13.7 70 +22 +22 комфорт 1012.4 971.9
13 15.07 ЮЗ 3
{4}
н/о н/о +22.4 +14.1 59 +26 +26 жарко 1011.8 971.7
14 15.07 ЮЗ 3
{4}
н/о н/о +22.9 +11.6 49 +25 +25 комфорт 1011.9 971.9
15 15.07 ЮЗ 3
{6}
н/о н/о +22.2 +11.9 52 +25 +25 комфорт 1012.3 972.2
16 15.07 ЮЗ 1
{5}
н/о н/о +22.0 +12.5 55 +25 +25 комфорт 1011.9 971.8
17 15.07 ЮЗ 2
{5}
н/о н/о +21.2 +13.1 60 +24 +24 комфорт 1012.1 971.9
18 15.07 ЮЗ 2
{6}
н/о н/о +20.5 +14.3 68 +24 +24 комфорт 1012.7 972.3 +23.2
19 15.07 штиль 0
{2}
н/о н/о +19.4 +15.2 77 +21 +21 комфорт 1013.1 972.6
20 15.07 ЮЗ 1
{1}
н/о н/о +16.6 +14.8 89 +18 +18 1014.6 973.6
21 15.07 ЮЗ 1
{2}
н/о н/о +16.6 +14.6 88 +18 +18 1015.3 974.3
22 15.07 ЮЗ 1
{2}
н/о н/о +15.7 +14.4 92 +16 +16 1015.5 974.3
23 15.07 ЮЗ 2
{2}
н/о н/о +15.2 +13.8 91 +15 +15 1015.4 974.2
00 16.07 Ю 1
{2}
н/о н/о +14.1 +13.2 94 +15 +15 1015.5 974.1
01 16.07 ЮЗ 1
{2}
н/о н/о +13.4 +12.5 94 +14 +14 1015.8 974.3
02 16.07 ЮЗ 1
{2}
н/о н/о +13.8 +12.9 94 +14 +14 1015.8 974.3
03 16.07 ЮЗ 2
{2}
н/о н/о +13.5 +12.7 95 +13 +13 1015.4 973.9
04 16.07 ЮЗ 1
{2}
н/о н/о +12.8 +12.0 95 +14 +14 1015.3 973.7
05 16.07 ЮЗ 1
{2}
н/о н/о +14.2 +13.2 94 +15 +15 1015.4 974.0
06 16.07 В 1
{2}
н/о н/о +17.4 +14.0 80 +19 +19 1015.0 974.1 +12.7
07 16.07 В 1
{2}
н/о н/о +19.2 +13.9 71 +22 +22 комфорт 1014.9 974.3
08 16.07 СВ 1
{3}
н/о н/о +21.6 +14.5 64 +25 +25 комфорт 1014.7 974.4
09 16.07 ЮВ 2
{3}
н/о н/о +22.6 +12.9 54 +25 +25 комфорт 1014.5 974.4
10 16.07 В 1
{4}
н/о н/о +23.8 +13.5 52 +26 +26 жарко 1014.3 974.3
11 16.07 З 2
{5}
н/о н/о +25.5 +15.3 53 +28 +28 жарко 1013.8 974.1
12 16.07 Ю 2
{5}
н/о н/о +25.9 +11.5 41 +27 +27 жарко 1013.5 973.9
13 16.07 ЮЗ 3
{5}
н/о н/о +26.3 +12.1 41 +28 +28 жарко 1013.1 973.5
14 16.07 З 4
{6}
н/о н/о +26.8 +12.5 41 +28 +28 жарко 1012.8 973.3
15 16.07 ЮЗ 3
{7}
н/о н/о +26.9 +13.5 44 +29 +29 жарко 1012.8 973.3
16 16.07 З 2
{6}
н/о н/о +26.5 +12.1 41 +28 +28 жарко 1012.4 972.9
17 16.07 ЮЗ 2
{5}
н/о н/о +26.5 +12.2 41 +28 +28 жарко 1012.2 972.7
18 16.07 ЮЗ 1
{7}
н/о н/о +24.2 +14.3 54 +27 +27 жарко 1012.5 972.7 +27.2
19 16.07 ЮЗ 1
{2}
н/о н/о +20.3 +14.8 71 +24 +24 комфорт 1013.3 972.9
20 16.07 ЮЗ 1
{1}
н/о н/о +17.4 +14.6 84 +18 +18 1014.2 973.3
21 16.07 ЮЗ 1
{2}
н/о н/о +16.9 +13.9 82 +18 +18 1014.4 973.5
22 16.07 ЮЗ 1
{2}
н/о н/о +16.2 +14.2 88 +17 +17 1014.8 973.7
23 16.07 ЮЗ 1
{2}
н/о н/о +15.7 +14.0 90 +16 +16 1015.0 973.9
00 17.07 ЮЗ 1
{2}
н/о н/о +15.2 +13.6 90 +16 +16 1015.2 974.0
01 17.07 ЮЗ 1
{1}
н/о н/о +14.5 +13.5 94 +15 +15 1015.1 973.8
02 17.07 ЮЗ 1
{2}
н/о н/о +14.5 +13.4 93 +15 +15 1014.8 973.5
03 17.07 штиль 0
{2}
н/о н/о +14.2 +12.9 92 +14 +14 1014.9 973.5
04 17.07 ЮЗ 1
{2}
н/о н/о +14.4 +13.5 94 +15 +15 1015.0 973.7
05 17.07 ЮЗ 1
{1}
н/о н/о +15.5 +14.6 94 +17 +17 1014.7 973.5
06 17.07 штиль 0
{2}
н/о н/о +18.5 +15.8 84 +19 +19 1014.3 973.6 +14.2
07 17.07 В 1
{2}
н/о н/о +21.7 +16.6 73 +26 +26 душно 1013.8 973.6
08 17.07 СВ 2
{2}
н/о н/о +23.5 +15.3 60 +26 +26 жарко 1013.5 973.5
09 17.07 Ю 1
{3}
н/о н/о +24.6 +13.7 51 +27 +27 жарко 1012.9 973.1
10 17.07 ЮВ 2
{3}
н/о н/о +26.4 +14.0 46 +29 +29 жарко 1012.4 972.9
11 17.07 Ю 1
{4}
н/о н/о +26.5 +13.4 44 +28 +28 жарко 1012.1 972.6
12 17.07 Ю 2
{5}
н/о н/о +27.0 +13.4 43 +29 +29 жарко 1011.6 972.2
13 17.07 В 2
{5}
н/о н/о +27.4 +12.6 40 +29 +29 жарко 1011.0 971.7
14 17.07 ЮЗ 2
{5}
н/о н/о +28.7 +14.0 41 +31 +31 жарко 1010.4 971.3
15 17.07 Ю 2
{5}
н/о н/о +28.5 +12.2 36 +30 +30 жарко 1010.0 970.9
16 17.07 ЮЗ 3
{5}
н/о н/о +27.1 +13.4 43 +29 +29 жарко 1009.7 970.4
17 17.07 ЮЗ 3
{5}
н/о н/о +26.6 +13.1 43 +28 +28 жарко 1009.7 970.3
18 17.07 ЮЗ 1
{5}
н/о н/о +22.8 +15.4 63 +27 +27 душно 1010.1 970.2 +28.9
19 17.07 штиль 0
{1}
н/о н/о +21.2 +16.6 75 +25 +25 комфорт 1010.6 970.4
20 17.07 ЮЗ 1
{2}
н/о н/о +19.9 +14.7 72 +24 +24 комфорт 1011.2 970.8
21 17.07 З 1
{3}
н/о н/о +19.4 +14.7 74 +23 +23 комфорт 1011.5 971.0
22 17.07 ЮЗ 1
{1}
н/о н/о +18.0 +15.0 83 +20 +20 1011.9 971.2
23 17.07 ЮЗ 1
{1}
н/о н/о +17.4 +14.3 82 +19 +19 1012.1 971.3
00 18.07 ЮЗ 1
{3}
н/о н/о +17.8 +14.4 80 +19 +19 1011.9 971.2
01 18.07 ЮЗ 1
{1}
н/о н/о +17.3 +14.7 85 +19 +19 1011.6 970.8
02 18.07 ЮЗ 1
{2}
н/о н/о +17.7 +14.6 82 +19 +19 1011.3 970.6
03 18.07 ЮЗ 1
{2}
н/о н/о +17.1 +14.9 87 +19 +19 1011.5 970.7
04 18.07 ЮЗ 1
{2}
н/о н/о +17.0 +15.0 88 +19 +19 1011.6 970.8
05 18.07 ЮЗ 1
{2}
н/о н/о +17.6 +15.3 86 +19 +19 1011.7 971.0
06 18.07 Ю 1
{2}
н/о н/о +19.6 +15.7 78 +23 +23 комфорт 1012.0 971.5 +17.0
07 18.07 СВ 2
{4}
н/о н/о +21.2 +15.3 69 +24 +24 комфорт 1012.5 972.2
08 18.07 В 2
{4}
н/о н/о +22.6 +14.2 59 +26 +26 жарко 1012.5 972.4
09 18.07 В 3
{5}
н/о н/о +23.7 +13.6 53 +26 +26 жарко 1012.4 972.5
10 18.07 Ю 2
{5}
н/о н/о +24.8 +14.3 52 +27 +27 жарко 1012.3 972.6
11 18.07 Ю 2
{5}
н/о н/о +25.2 +14.7 52 +28 +28 жарко 1012.2 972.5
12 18.07 ЮЗ 2
{5}
н/о н/о +25.9 +15.2 52 +29 +29 душно 1011.8 972.2
13 18.07 ЮЗ 2
{5}
н/о н/о +26.0 +15.4 52 +29 +29 душно 1011.3 971.8
14 18.07 Ю 2
{5}
н/о н/о +27.6 +16.2 50 +31 +31 душно 1010.8 971.5
15 18.07 Ю 1
{5}
н/о н/о +27.5 +16.0 49 +31 +31 душно 1010.6 971.3
17 18.07 Ю 1
{6}
н/о н/о +23.4 +14.6 58 +27 +27 душно 1012.0 972.1
18 18.07 ЮЗ 1
{8}
н/о н/о +22.8 +15.3 63 +27 +27 душно 1012.2 972.2 +27.9
19 18.07 ЮЗ 1
{2}
н/о н/о +20.7 +16.6 77 +25 +25 комфорт 1013.2 972.8
20 18.07 Ю 1
{2}
н/о н/о +19.5 +16.2 81 +23 +23 комфорт 1014.0 973.4

 

Местоположение метеостанции Стабио (Швейцария): широта 45.85 долгота 8.93 высота над уровнем моря 356 м.

В архиве по умолчанию представлена погода в Стабио за последнюю неделю. Архивные данные за месяц целиком и за предыдущие месяцы, начиная с января 2011 года, Вы можете получить, выбрав интересующий диапазон дат из раскрывающегося списка и нажав кнопку "Ввод!".


*Определитесь, кто Вы:
робот инопланетянин человек

Внимание! Время в таблицах - всемирное. Для получения местного времени необходимо прибавить поправку, которая равна 1 ч.

Смотрите также архив погоды в соседних городах и на ближайших метеорологических станциях:

Погода на Монте-Дженеросо (Швейцария) (11 км)
Погода в Лугано (Швейцария) (17 км)
Погода в Аэропорту Мальпенса (Италия) (30 км)
Погода в Локарно-Магадино (Швейцария) (36 км)
Погода в Локарно-Монти (Швейцария) (37 км)
Погода на Циметте (Швейцария) (40 км)
Погода в Новара (Италия) (42 км)
Погода в Гроно (Швейцария) (48 км)
Погода в Милане (Италия) (54 км)
Погода в Севьо (Швейцария) (58 км)

Пояснения к столбцам:

Ветер - указаны скорость ветра в м/с - средняя за 10 мин, порывы в срок и между сроками (в фигурных скобках) и направление, откуда дует ветер: С - северный, СВ - северо-восточный, В - восточный, ЮВ - юго-восточный, Ю - южный, ЮЗ - юго-западный, З - западный, СЗ - северо-западный.
Видимость - горизонтальная дальность видимости в метрах или километрах. При видимости от 1 до 10 км при отсутствии осадков обычно наблюдается дымка, при ухудшении видимости до 1 км и менее - туман. В сухую погоду видимость может ухудшаться дымом, пылью или мглою.
Явления - указаны атмосферные явления, наблюдавшиеся в срок или в последний час перед сроком; фигурными скобками обозначены явления, наблюдавшиеся между сроками (за 1-3 часа до срока); квадратными скобками обозначены град или гололедные отложения с указанием их диаметра в мм.
Облачность - указаны через наклонную черту общая и нижняя облачность в баллах и высота нижней границы облаков в метрах; квадратными скобками обозначены формы облаков: Ci - перистые, Cs - перисто-слоистые, Cc - перисто-кучевые, Ac - высококучевые, As - высокослоистые, Sc - слоисто-кучевые, Ns - слоисто-дождевые, Cu - кучевые, Cb - кучево-дождевые. Подробнее классификацию облаков см. в Атласе облаков (PDF).
T - Температура воздуха - температура, измеренная на высоте 2 м над землей.
Td - Температура точки росы - температура, при понижении до которой содержащийся в воздухе водяной пар достигнет насыщения.
f - Относительная влажность воздуха - влажноcть воздуха, измеренная на высоте 2 м над землей.
Te - Эффективная температура - температура, которую ощущает одетый по сезону человек в тени. Характеристика душности погоды. При расчете учитывается влияние влажности воздуха и скорости ветра на теплоощущения человека.
Tes - Эффективная температура на солнце - температура, которую ощущает человек, с поправкой на солнечный нагрев. Характеристика знойности погоды. Зависит от высоты солнца над горизонтом, облачности и скорости ветра. Ночью, в пасмурную погоду, а также при ветре 12 м/с и более поправка равна нулю.
P - Атмосферное давление - приведенное к уровню моря атмосферное давление.
Po - Атмосферное давление - измеренное на уровне метеостанции атмосферное давление.
Tmin - Минимальная температура - минимум температуры воздуха на высоте 2 м над землей.
Tmax - Максимальная температура - максимум температуры воздуха на высоте 2 м над землей.
R - Количество осадков - Количество выпавших осадков за период времени, мм. При наведении курсора мыши на число - период времени, за который выпало указанное количество осадков.
R24 - Количество осадков - Количество выпавших осадков за 24 часа, мм.
S - Снежный покров - Высота снежного покрова, см. При наведении курсора мыши на число - состояние снежного покрова и степень покрытия местности в баллах.